This demonstration page uses our WeatherBlox Daily Observations layout. Learn more.

Left ArrowRight Arrow

40.92945, -100.16068

Hourly Observations for April 4, 2021

Temp ( °F °C ) Dew Point ( °F °C ) Humidity (%) Winds ( mph kmh ) Pressure ( in mb ) Visibility ( mi km ) Precip ( " mm )
12:15 am 00:15 Clear 55 12.5 40 4.3 58 58 SE 6 9 30.04 1017 10 16 N/A
12:35 am 00:35 Clear 55 12.5 40 4.4 58 58 SE 6 9 30.03 1017 10 16 N/A
12:55 am 00:55 Clear 54 12 40 4.4 60 60 SE 7 11 30.03 1017 10 16 N/A
1:15 am 01:15 Clear 52 10.9 40 4.4 64 64 ESE 5 7 30.04 1017 10 16 N/A
1:35 am 01:35 Clear 47 8.1 38 3.6 74 74 E 6 9 30.07 1018 10 16 N/A
1:55 am 01:55 Clear 48 9 40 4.2 72 72 E 6 9 30.05 1018 10 16 N/A
2:15 am 02:15 Clear 46 7.5 38 3.6 77 77 E 8 13 30.06 1018 10 16 N/A
2:35 am 02:35 Clear 46 7.6 38 3.6 76 76 ENE 6 9 30.06 1018 10 16 N/A
2:55 am 02:55 Clear 45 7.2 38 3.5 78 78 E 7 11 30.07 1018 10 16 N/A
3:15 am 03:15 Clear 46 7.8 39 3.9 77 77 SE 3 6 30.05 1018 10 16 N/A
3:35 am 03:35 Clear 43 6.3 38 3.2 81 81 ENE 3 6 30.06 1018 10 16 N/A
3:55 am 03:55 Clear 43 6 38 3.3 83 83 ENE 6 9 30.05 1018 10 16 N/A
4:15 am 04:15 Clear 42 5.6 38 3.3 85 85 E 7 11 30.05 1018 10 16 N/A
4:35 am 04:35 Clear 45 7.4 40 4.3 81 81 ESE 7 11 30.03 1017 10 16 N/A
4:55 am 04:55 Clear 43 6.3 39 3.9 85 85 ESE 6 9 30.03 1017 10 16 N/A
5:15 am 05:15 Clear 45 7.4 40 4.5 82 82 SE 6 9 30.01 1016 10 16 N/A
5:35 am 05:35 Clear 43 6.2 39 3.7 84 84 SE 3 6 30.02 1016 10 16 N/A
5:55 am 05:55 Clear 39 3.8 36 2.3 90 90 N 7 11 30.05 1018 10 16 N/A
6:15 am 06:15 Clear 38 3.6 36 2.2 91 91 N N/A 30.05 1018 10 16 N/A
6:35 am 06:35 Clear 38 3.2 35 1.4 88 88 N N/A 30.06 1018 10 16 N/A
6:55 am 06:55 Clear 36 2.2 34 1.1 93 93 W 9 15 30.07 1018 10 16 N/A
7:15 am 07:15 Clear 37 2.6 35 1.4 92 92 WNW 7 11 30.07 1018 10 16 N/A
7:35 am 07:35 Sunny 36 2.3 34 1.1 92 92 NW 6 9 30.08 1019 10 16 N/A
7:55 am 07:55 Sunny 36 2.4 34 1.3 93 93 WNW 5 7 30.08 1019 7 11 N/A
8:15 am 08:15 Sunny 39 4.1 37 2.9 92 92 W 3 6 30.07 1018 10 16 N/A
8:35 am 08:35 Sunny 42 5.7 38 3.5 86 86 WSW 5 7 30.05 1018 10 16 N/A
8:55 am 08:55 Sunny 45 7.3 40 4.2 81 81 WSW 3 6 30.04 1017 10 16 N/A
9:15 am 09:15 Sunny 48 8.8 40 4.7 76 76 N N/A 30.01 1016 10 16 N/A
9:35 am 09:35 Sunny 51 10.5 41 5.2 70 70 N N/A 30.00 1016 10 16 N/A
9:55 am 09:55 Sunny 54 12.1 43 5.9 66 66 WNW 3 6 29.99 1016 10 16 N/A
10:15 am 10:15 Sunny 56 13.5 44 6.4 62 62 N N/A 29.97 1015 10 16 N/A
10:35 am 10:35 Sunny 58 14.7 44 6.4 58 58 N N/A 29.97 1015 10 16 N/A
10:55 am 10:55 Sunny 61 16.1 43 6.1 52 52 N N/A 29.95 1014 10 16 N/A
11:15 am 11:15 Sunny 64 17.5 42 5.8 46 46 NE 3 6 29.93 1014 10 16 N/A
11:35 am 11:35 Sunny 67 19.2 42 5.8 42 42 NE 7 11 29.91 1013 10 16 N/A
11:55 am 11:55 Sunny 70 21.3 43 6.2 38 38 ENE 9 15 29.89 1012 10 16 N/A
12:15 pm 12:15 Sunny 73 23 41 4.8 31 31 E 10 17 29.87 1011 10 16 N/A
12:35 pm 12:35 Sunny 75 23.9 41 4.9 29 29 E 10 17 29.85 1011 10 16 N/A
12:55 pm 12:55 Sunny 76 24.5 42 5.5 29 29 ESE 9 15 29.83 1010 10 16 N/A
1:15 pm 13:15 Sunny 76 24.7 42 5.6 29 29 SE 10 17 29.82 1010 10 16 N/A
1:35 pm 13:35 Sunny 76 24.6 41 5.2 29 29 SSE 14 22 29.82 1010 10 16 N/A
1:55 pm 13:55 Sunny 77 25.1 43 6 29 29 SSE 12 19 29.81 1009 10 16 N/A
2:15 pm 14:15 Sunny 78 25.3 39 3.9 25 25 ESE 12 19 29.80 1009 10 16 N/A
2:35 pm 14:35 Sunny 80 26.6 40 4.2 24 24 SE 7 11 29.78 1008 10 16 N/A
2:55 pm 14:55 Sunny 81 27.3 37 2.9 21 21 SSE 8 13 29.75 1007 10 16 N/A
3:15 pm 15:15 Sunny 82 28 36 2 19 19 SSE 9 15 29.75 1007 10 16 N/A
3:35 pm 15:35 Sunny 84 28.7 38 3.3 20 20 SSE 10 17 29.72 1006 10 16 N/A
3:55 pm 15:55 Sunny 83 28.1 40 4.4 22 22 S 12 19 29.72 1006 10 16 N/A
4:15 pm 16:15 Sunny 84 28.9 40 4.5 21 21 SW 12 19 29.70 1006 10 16 N/A
4:35 pm 16:35 Sunny 85 29.2 40 4.6 21 21 SSW 8 13 29.69 1005 10 16 N/A
4:55 pm 16:55 Sunny 85 29.2 40 4.5 21 21 SW 12 19 29.69 1005 10 16 N/A
5:15 pm 17:15 Sunny 84 28.8 40 4.7 22 22 W 6 9 29.68 1005 10 16 N/A
5:35 pm 17:35 Sunny 83 28.4 38 3.2 20 20 N 9 15 29.67 1005 10 16 N/A
5:55 pm 17:55 Sunny 83 28.6 35 1.6 17 17 NNE 5 7 29.66 1004 10 16 N/A
6:15 pm 18:15 Sunny 81 27.3 39 3.9 22 22 S 14 22 29.69 1005 10 16 N/A
6:35 pm 18:35 Partly Cloudy 78 25.5 40 4.7 26 26 S 10 17 29.71 1006 10 16 N/A
6:55 pm 18:55 Sunny 77 25.1 39 4.1 26 26 SSE 10 17 29.70 1006 10 16 N/A
7:15 pm 19:15 Sunny 74 23.6 42 5.6 31 31 SSE 8 13 29.70 1006 10 16 N/A
7:35 pm 19:35 Sunny 74 23.1 42 5.5 32 32 SE 7 11 29.71 1006 10 16 N/A
7:55 pm 19:55 Sunny 74 23.6 39 3.9 28 28 SE 8 13 29.69 1005 10 16 N/A
8:15 pm 20:15 Clear 74 23.3 38 3.1 27 27 SE 10 17 29.69 1006 10 16 N/A
8:35 pm 20:35 Clear 73 22.8 39 4 29 29 SE 9 15 29.70 1006 10 16 N/A
8:55 pm 20:55 Clear 73 22.8 38 3.6 29 29 SE 12 19 29.70 1006 10 16 N/A
9:15 pm 21:15 Clear 72 22.1 39 3.8 30 30 SE 10 17 29.71 1006 10 16 N/A
9:35 pm 21:35 Clear 70 20.9 40 4.4 34 34 SE 9 15 29.73 1007 10 16 N/A
9:55 pm 21:55 Clear 68 20.1 40 4.5 36 36 SE 9 15 29.73 1007 10 16 N/A
10:15 pm 22:15 Clear 67 19.4 40 4.7 38 38 S 14 22 29.73 1007 10 16 N/A
10:35 pm 22:35 Clear 69 20.5 40 4.6 35 35 S 17 28 29.71 1006 10 16 N/A
10:55 pm 22:55 Clear 69 20.6 40 4.6 35 35 S 20 31 29.71 1006 10 16 N/A
11:15 pm 23:15 Clear 69 20.5 40 4.5 35 35 S 22 35 29.70 1006 10 16 N/A
11:35 pm 23:35 Clear 68 19.9 40 4.6 37 37 SSW 21 33 29.71 1006 10 16 N/A
11:55 pm 23:55 Clear 67 19.5 41 4.9 38 38 SSW 18 30 29.73 1007 10 16 N/A

Powered by AerisWeather